Location: C�mpuri de-Sus
(45.9500°N, 22.5500°E)
Time: 01:34:08
(UTC+00:00)

Cosmos 839 Rocket - Pass Details

Date: 05 June 2022
Orbit: 968 x 2085 km, 65.9° (Epoch: 06 July)

Event Time Altitude Azimuth Distance (km) Brightness Sun altitude
Rises 22:56:12 0° 313° (NW) 3,776 7.6 -21.1°
Reaches altitude 10° 22:59:19 10° 297° (WNW) 2,915 6.7 -21.1°
Maximum altitude 23:04:09 21° 252° (WSW) 2,381 5.8 -20.9°
Enters shadow 23:05:41 20° 235° (SW) 2,514 5.7 -20.9°
